TimeEDT,TemperatureF,Dew PointF,Humidity,Sea Level PressureIn,VisibilityMPH,Wind Direction,Wind SpeedMPH,Gust SpeedMPH,PrecipitationIn,Events,Conditions,WindDirDegrees,DateUTC
12:13 AM,34.0,23.9,67,30.17,10.0,NNW,6.9,-,N/A,,Clear,330,2013-03-27 04:13:00
12:33 AM,33.6,24.3,69,30.18,10.0,NNW,6.9,-,N/A,,Clear,340,2013-03-27 04:33:00
12:53 AM,33.1,24.8,72,30.18,10.0,North,4.6,-,N/A,,Clear,350,2013-03-27 04:53:00
1:13 AM,33.3,25.2,72,30.18,10.0,NNW,5.8,-,N/A,,Clear,340,2013-03-27 05:13:00
1:33 AM,33.1,25.3,73,30.18,10.0,NNW,5.8,-,N/A,,Clear,330,2013-03-27 05:33:00
1:53 AM,32.9,25.2,73,30.17,10.0,NNW,4.6,-,N/A,,Mostly Cloudy,330,2013-03-27 05:53:00
2:14 AM,33.1,25.5,74,30.17,10.0,NW,4.6,-,N/A,,Overcast,320,2013-03-27 06:14:00
2:34 AM,33.8,25.5,72,30.17,10.0,NW,5.8,-,N/A,,Overcast,320,2013-03-27 06:34:00
2:54 AM,33.4,25.3,72,30.17,10.0,NW,5.8,-,N/A,,Overcast,320,2013-03-27 06:54:00
3:14 AM,32.7,25.2,74,30.17,10.0,NW,4.6,-,N/A,,Scattered Clouds,320,2013-03-27 07:14:00
3:34 AM,33.1,25.3,73,30.16,10.0,NW,8.1,-,N/A,,Mostly Cloudy,320,2013-03-27 07:34:00
3:54 AM,33.1,24.8,72,30.16,10.0,NW,6.9,-,N/A,,Overcast,320,2013-03-27 07:54:00
4:14 AM,33.1,25.2,73,30.16,10.0,NW,3.5,-,N/A,,Overcast,320,2013-03-27 08:14:00
4:34 AM,32.9,24.8,72,30.16,10.0,NW,6.9,-,N/A,,Mostly Cloudy,320,2013-03-27 08:34:00
4:55 AM,32.7,24.8,73,30.16,10.0,NW,6.9,-,N/A,,Mostly Cloudy,320,2013-03-27 08:55:00
5:15 AM,32.4,24.8,74,30.16,10.0,NW,8.1,-,N/A,,Mostly Cloudy,320,2013-03-27 09:15:00
5:35 AM,32.2,24.8,74,30.17,10.0,NNW,6.9,-,N/A,,Scattered Clouds,330,2013-03-27 09:35:00
5:55 AM,32.0,24.8,75,30.17,10.0,NW,5.8,-,N/A,,Clear,320,2013-03-27 09:55:00
6:15 AM,32.0,24.8,75,30.18,10.0,NW,5.8,-,N/A,,Clear,320,2013-03-27 10:15:00
6:55 AM,31.6,25.2,77,30.18,10.0,NW,6.9,-,N/A,,Clear,320,2013-03-27 10:55:00
7:15 AM,31.3,24.8,77,30.18,10.0,NNW,5.8,-,N/A,,Clear,330,2013-03-27 11:15:00
7:35 AM,31.5,24.8,76,30.18,10.0,NW,5.8,-,N/A,,Clear,320,2013-03-27 11:35:00
7:56 AM,31.8,25.3,77,30.18,10.0,NW,5.8,-,N/A,,Clear,320,2013-03-27 11:56:00
8:16 AM,32.0,25.3,76,30.19,10.0,NW,8.1,-,N/A,,Clear,320,2013-03-27 12:16:00
8:36 AM,32.2,25.7,77,30.19,10.0,NW,9.2,-,N/A,,Clear,320,2013-03-27 12:36:00
8:56 AM,32.9,26.1,76,30.20,10.0,NNW,8.1,-,N/A,,Clear,330,2013-03-27 12:56:00
9:16 AM,33.4,26.2,75,30.20,10.0,NNW,5.8,-,N/A,,Clear,330,2013-03-27 13:16:00
9:36 AM,33.8,26.6,75,30.20,10.0,NNW,5.8,-,N/A,,Clear,330,2013-03-27 13:36:00
9:56 AM,34.3,27.1,75,30.20,10.0,North,6.9,-,N/A,,Clear,350,2013-03-27 13:56:00
10:16 AM,34.5,27.3,75,30.20,10.0,NNW,10.4,16.1,N/A,,Scattered Clouds,330,2013-03-27 14:16:00
10:36 AM,34.9,27.5,74,30.20,10.0,NNW,4.6,-,N/A,,Scattered Clouds,340,2013-03-27 14:36:00
10:57 AM,34.9,27.5,74,30.20,10.0,NNW,5.8,-,N/A,,Clear,330,2013-03-27 14:57:00
11:17 AM,34.9,27.1,73,30.21,10.0,NNW,9.2,-,N/A,,Clear,330,2013-03-27 15:17:00
11:32 AM,35.1,27.0,72,30.22,10.0,NNW,6.9,-,N/A,,Clear,340,2013-03-27 15:32:00
11:52 AM,35.6,27.3,72,30.22,10.0,NNW,6.9,-,N/A,,Clear,330,2013-03-27 15:52:00
12:12 PM,36.5,27.5,70,30.21,10.0,NW,9.2,-,N/A,,Clear,320,2013-03-27 16:12:00
12:32 PM,36.7,26.8,67,30.21,10.0,NNW,9.2,-,N/A,,Clear,340,2013-03-27 16:32:00
12:52 PM,37.0,27.9,69,30.22,10.0,NW,4.6,-,N/A,,Clear,320,2013-03-27 16:52:00
1:12 PM,37.2,26.8,66,30.22,10.0,WNW,10.4,-,N/A,,Clear,290,2013-03-27 17:12:00
1:33 PM,37.0,27.0,67,30.22,10.0,NW,10.4,17.3,N/A,,Clear,320,2013-03-27 17:33:00
1:53 PM,36.7,24.8,62,30.22,10.0,NW,13.8,20.7,N/A,,Clear,320,2013-03-27 17:53:00
2:13 PM,37.4,25.5,62,30.22,10.0,NW,11.5,18.4,N/A,,Clear,310,2013-03-27 18:13:00
2:33 PM,38.3,23.7,56,30.22,10.0,NW,10.4,17.3,N/A,,Clear,320,2013-03-27 18:33:00
2:53 PM,38.7,21.0,49,30.21,10.0,NNW,12.7,16.1,N/A,,Clear,340,2013-03-27 18:53:00
3:13 PM,39.9,25.7,57,30.21,10.0,WNW,9.2,-,N/A,,Clear,290,2013-03-27 19:13:00
3:56 PM,40.3,26.2,57,30.21,10.0,West,6.9,-,N/A,,Clear,270,2013-03-27 19:56:00
4:16 PM,40.3,27.3,60,30.21,10.0,West,6.9,-,N/A,,Clear,280,2013-03-27 20:16:00
4:36 PM,41.2,26.6,56,30.21,10.0,West,8.1,-,N/A,,Clear,280,2013-03-27 20:36:00
4:56 PM,40.1,27.3,60,30.21,10.0,West,10.4,-,N/A,,Clear,280,2013-03-27 20:56:00
5:16 PM,40.6,27.5,59,30.21,10.0,West,10.4,-,N/A,,Clear,270,2013-03-27 21:16:00
5:36 PM,40.3,27.5,60,30.21,10.0,West,8.1,-,N/A,,Clear,270,2013-03-27 21:36:00
5:56 PM,40.5,27.7,60,30.21,10.0,West,6.9,-,N/A,,Clear,280,2013-03-27 21:56:00
6:16 PM,40.3,24.3,53,30.21,10.0,WNW,9.2,-,N/A,,Clear,290,2013-03-27 22:16:00
6:37 PM,40.1,26.1,57,30.21,10.0,WNW,5.8,-,N/A,,Clear,290,2013-03-27 22:37:00
6:57 PM,39.7,27.5,62,30.21,10.0,West,6.9,-,N/A,,Clear,280,2013-03-27 22:57:00
7:17 PM,39.0,25.3,58,30.21,10.0,West,4.6,-,N/A,,Clear,270,2013-03-27 23:17:00
7:37 PM,38.1,28.2,68,30.22,10.0,West,4.6,-,N/A,,Clear,270,2013-03-27 23:37:00
7:52 PM,36.9,28.2,71,30.22,10.0,West,3.5,-,N/A,,Clear,280,2013-03-27 23:52:00
8:12 PM,35.6,27.7,73,30.22,10.0,Calm,Calm,-,N/A,,Clear,0,2013-03-28 00:12:00
8:32 PM,33.1,26.6,77,30.22,10.0,Calm,Calm,-,N/A,,Clear,0,2013-03-28 00:32:00
8:52 PM,31.3,25.9,80,30.22,10.0,Calm,Calm,-,N/A,,Clear,0,2013-03-28 00:52:00
9:12 PM,31.1,25.3,79,30.22,10.0,Calm,Calm,-,N/A,,Clear,0,2013-03-28 01:12:00
9:32 PM,30.6,24.4,78,30.22,10.0,Calm,Calm,-,N/A,,Clear,0,2013-03-28 01:32:00
9:53 PM,30.0,24.6,80,30.23,10.0,Calm,Calm,-,N/A,,Clear,0,2013-03-28 01:53:00
10:13 PM,29.5,23.7,79,30.23,10.0,Calm,Calm,-,N/A,,Clear,0,2013-03-28 02:13:00
10:33 PM,27.9,23.2,83,30.23,10.0,Calm,Calm,-,N/A,,Clear,0,2013-03-28 02:33:00
10:53 PM,28.4,23.5,82,30.23,10.0,Calm,Calm,-,N/A,,Clear,0,2013-03-28 02:53:00
11:13 PM,27.5,23.0,83,30.23,10.0,Calm,Calm,-,N/A,,Clear,0,2013-03-28 03:13:00
11:33 PM,27.0,22.5,83,30.24,10.0,Calm,Calm,-,N/A,,Clear,0,2013-03-28 03:33:00
11:53 PM,26.6,22.1,83,30.24,10.0,Calm,Calm,-,N/A,,Clear,0,2013-03-28 03:53:00